DLH5HU EDDB-EDDF

Flight info

Callsign DLH5HU
Flight time 0h 45m
Altitude 24000
Route SUKIP2Q SUKIP DCT MAXAN DCT ORTAG/N0406F220 T177 ODIPI/N0400F210 T157 KERAX KERAX5A
Aircraft A320/M-SDE3FGHIRWY/LB1

Departure

Time 2026-05-06 22:00
Airport Berlin Brandenburg Airport (EDDB)

Arrival

Time 2026-05-06 22:46
Airport Frankfurt Main Airport (EDDF)
Time Latitude Longitude Altitude Speed Heading
2026-05-06 21:45 52.36322 13.50636 155 ft 0 kts 69°
2026-05-06 21:51 52.36321 13.50633 155 ft 2 kts 69°
2026-05-06 21:52 52.36312 13.50594 155 ft 4 kts 69°
2026-05-06 21:52 52.36303 13.50553 155 ft 4 kts 80°
2026-05-06 21:52 52.36303 13.50510 155 ft 4 kts 108°
2026-05-06 21:52 52.36315 13.50481 155 ft 2 kts 159°
2026-05-06 21:53 52.36320 13.50478 155 ft 0 kts 159°
2026-05-06 21:54 52.36284 13.50500 154 ft 17 kts 159°
2026-05-06 21:55 52.36143 13.50591 154 ft 23 kts 158°
2026-05-06 21:55 52.35988 13.50690 154 ft 25 kts 161°
2026-05-06 21:55 52.35842 13.50780 154 ft 18 kts 159°
2026-05-06 21:55 52.35728 13.50808 154 ft 16 kts 216°
2026-05-06 21:56 52.35680 13.50650 154 ft 19 kts 243°
2026-05-06 21:56 52.35612 13.50348 154 ft 37 kts 252°
2026-05-06 21:56 52.35517 13.49923 154 ft 40 kts 249°
2026-05-06 21:56 52.35411 13.49503 157 ft 40 kts 248°
2026-05-06 21:57 52.35309 13.49076 154 ft 40 kts 249°
2026-05-06 21:57 52.35208 13.48650 154 ft 40 kts 248°
2026-05-06 21:57 52.35107 13.48225 154 ft 40 kts 249°
2026-05-06 21:57 52.35007 13.47801 154 ft 40 kts 249°
2026-05-06 21:58 52.34906 13.47378 154 ft 40 kts 248°
2026-05-06 21:58 52.34815 13.46994 154 ft 24 kts 249°
2026-05-06 21:58 52.34749 13.46779 154 ft 18 kts 207°
2026-05-06 21:58 52.34636 13.46818 154 ft 16 kts 159°
2026-05-06 21:59 52.34570 13.46934 154 ft 15 kts 95°
2026-05-06 21:59 52.34614 13.47149 154 ft 39 kts 68°
2026-05-06 21:59 52.34799 13.47925 154 ft 104 kts 69°
2026-05-06 21:59 52.35130 13.49310 157 ft 155 kts 68°
2026-05-06 22:00 52.35491 13.50996 704 ft 158 kts 78°
2026-05-06 22:00 52.35364 13.52794 1333 ft 165 kts 110°
2026-05-06 22:00 52.34635 13.54415 1699 ft 190 kts 130°
2026-05-06 22:00 52.33484 13.55632 2125 ft 210 kts 166°
2026-05-06 22:01 52.32006 13.55283 2579 ft 230 kts 207°
2026-05-06 22:01 52.30602 13.53796 3079 ft 250 kts 217°
2026-05-06 22:01 52.29210 13.51976 3757 ft 261 kts 220°
2026-05-06 22:01 52.27810 13.50038 4665 ft 264 kts 224°
2026-05-06 22:02 52.26727 13.47654 5607 ft 263 kts 246°
2026-05-06 22:02 52.26289 13.44752 6462 ft 267 kts 268°
2026-05-06 22:02 52.26308 13.41730 7382 ft 266 kts 270°
2026-05-06 22:02 52.26330 13.38701 8273 ft 268 kts 270°
2026-05-06 22:03 52.26336 13.35633 9056 ft 274 kts 269°
2026-05-06 22:03 52.26324 13.32536 9864 ft 278 kts 268°
2026-05-06 22:03 52.26307 13.29308 10315 ft 295 kts 268°
2026-05-06 22:03 52.26256 13.25833 10543 ft 318 kts 264°
2026-05-06 22:04 52.25830 13.22127 10783 ft 337 kts 252°
2026-05-06 22:04 52.24942 13.18594 11356 ft 344 kts 242°
2026-05-06 22:04 52.23710 13.15208 12067 ft 348 kts 238°
2026-05-06 22:04 52.22432 13.11773 12797 ft 351 kts 238°
2026-05-06 22:05 52.21172 13.08392 13508 ft 355 kts 238°
2026-05-06 22:05 52.19877 13.04947 14147 ft 358 kts 237°
2026-05-06 22:05 52.18435 13.01612 14774 ft 361 kts 234°
2026-05-06 22:05 52.16929 12.98316 15409 ft 364 kts 233°
2026-05-06 22:06 52.15389 12.95034 16036 ft 366 kts 232°
2026-05-06 22:06 52.13826 12.91737 16651 ft 369 kts 232°
2026-05-06 22:06 52.12252 12.88416 17272 ft 372 kts 233°
2026-05-06 22:06 52.10667 12.85056 17930 ft 375 kts 232°
2026-05-06 22:07 52.09079 12.81680 18518 ft 377 kts 232°
2026-05-06 22:07 52.07484 12.78281 19070 ft 379 kts 232°
2026-05-06 22:07 52.05878 12.74859 19584 ft 382 kts 232°
2026-05-06 22:07 52.04258 12.71411 20119 ft 385 kts 232°
2026-05-06 22:08 52.02628 12.67943 20647 ft 387 kts 232°
2026-05-06 22:08 52.00987 12.64458 21165 ft 390 kts 232°
2026-05-06 22:08 51.99333 12.60958 21678 ft 392 kts 232°
2026-05-06 22:08 51.97668 12.57440 22159 ft 394 kts 232°
2026-05-06 22:09 51.95992 12.53906 22648 ft 397 kts 232°
2026-05-06 22:09 51.94304 12.50354 23116 ft 399 kts 232°
2026-05-06 22:09 51.92608 12.46784 23543 ft 401 kts 232°
2026-05-06 22:09 51.90903 12.43195 23791 ft 402 kts 232°
2026-05-06 22:10 51.89184 12.39587 23855 ft 409 kts 232°
2026-05-06 22:10 51.87432 12.35910 23858 ft 415 kts 232°
2026-05-06 22:10 51.85662 12.32205 23856 ft 417 kts 231°
2026-05-06 22:10 51.83885 12.28486 23855 ft 418 kts 232°
2026-05-06 22:11 51.82109 12.24771 23856 ft 418 kts 231°
2026-05-06 22:11 51.80331 12.21054 23858 ft 418 kts 231°
2026-05-06 22:11 51.78549 12.17340 23853 ft 418 kts 231°
2026-05-06 22:11 51.76765 12.13637 23857 ft 418 kts 231°
2026-05-06 22:12 51.74980 12.09941 23859 ft 417 kts 231°
2026-05-06 22:12 51.73195 12.06247 23847 ft 417 kts 231°
2026-05-06 22:12 51.71410 12.02557 23857 ft 417 kts 231°
2026-05-06 22:12 51.69640 11.98902 23846 ft 417 kts 231°
2026-05-06 22:13 51.67853 11.95211 23850 ft 417 kts 231°
2026-05-06 22:13 51.66066 11.91520 23838 ft 417 kts 231°
2026-05-06 22:13 51.64279 11.87834 23836 ft 417 kts 231°
2026-05-06 22:13 51.62491 11.84151 23837 ft 417 kts 231°
2026-05-06 22:14 51.60697 11.80471 23845 ft 418 kts 231°
2026-05-06 22:14 51.58901 11.76801 23836 ft 418 kts 231°
2026-05-06 22:14 51.57103 11.73131 23840 ft 418 kts 231°
2026-05-06 22:14 51.55304 11.69461 23836 ft 418 kts 231°
2026-05-06 22:15 51.53505 11.65795 23836 ft 418 kts 231°
2026-05-06 22:15 51.51706 11.62134 23837 ft 418 kts 231°
2026-05-06 22:15 51.49908 11.58461 23841 ft 418 kts 231°
2026-05-06 22:15 51.48111 11.54796 23839 ft 418 kts 231°
2026-05-06 22:16 51.46313 11.51140 23844 ft 418 kts 231°
2026-05-06 22:16 51.44512 11.47489 23841 ft 418 kts 231°
2026-05-06 22:16 51.42707 11.43841 23839 ft 418 kts 231°
2026-05-06 22:16 51.40899 11.40200 23838 ft 417 kts 231°
2026-05-06 22:17 51.39092 11.36560 23841 ft 417 kts 231°
2026-05-06 22:17 51.37285 11.32921 23839 ft 417 kts 231°
2026-05-06 22:17 51.35479 11.29283 23842 ft 417 kts 231°
2026-05-06 22:17 51.33673 11.25647 23835 ft 417 kts 231°
2026-05-06 22:18 51.31889 11.22063 23834 ft 417 kts 231°
2026-05-06 22:18 51.30078 11.18436 23833 ft 417 kts 231°
2026-05-06 22:18 51.28268 11.14814 23835 ft 417 kts 231°
2026-05-06 22:18 51.26453 11.11190 23833 ft 417 kts 231°
2026-05-06 22:19 51.24639 11.07572 23831 ft 417 kts 230°
2026-05-06 22:19 51.22825 11.03963 23834 ft 417 kts 230°
2026-05-06 22:19 51.21010 11.00357 23830 ft 417 kts 230°
2026-05-06 22:19 51.19190 10.96741 23834 ft 418 kts 230°
2026-05-06 22:20 51.17372 10.93128 23826 ft 418 kts 230°
2026-05-06 22:20 51.15551 10.89509 23822 ft 419 kts 230°
2026-05-06 22:20 51.13730 10.85895 23822 ft 419 kts 230°
2026-05-06 22:20 51.11902 10.82275 23821 ft 419 kts 230°
2026-05-06 22:21 51.10072 10.78664 23821 ft 419 kts 230°
2026-05-06 22:21 51.08238 10.75055 23823 ft 420 kts 230°
2026-05-06 22:21 51.06401 10.71449 23824 ft 420 kts 230°
2026-05-06 22:21 51.04565 10.67847 23827 ft 419 kts 230°
2026-05-06 22:22 51.02727 10.64248 23831 ft 419 kts 230°
2026-05-06 22:22 51.00892 10.60652 23833 ft 419 kts 230°
2026-05-06 22:22 50.99055 10.57058 23835 ft 419 kts 230°
2026-05-06 22:22 50.97210 10.53460 23837 ft 419 kts 230°
2026-05-06 22:23 50.95370 10.49874 23837 ft 419 kts 230°
2026-05-06 22:23 50.93530 10.46289 23838 ft 419 kts 230°
2026-05-06 22:23 50.91715 10.42755 23839 ft 419 kts 230°
2026-05-06 22:23 50.89874 10.39172 23854 ft 419 kts 230°
2026-05-06 22:24 50.88031 10.35590 23836 ft 420 kts 230°
2026-05-06 22:24 50.86181 10.31998 23822 ft 421 kts 230°
2026-05-06 22:24 50.84322 10.28398 23819 ft 423 kts 229°
2026-05-06 22:24 50.82459 10.24805 23818 ft 423 kts 229°
2026-05-06 22:25 50.80581 10.21192 23819 ft 424 kts 229°
2026-05-06 22:25 50.78705 10.17587 23821 ft 425 kts 229°
2026-05-06 22:25 50.76828 10.13985 23826 ft 425 kts 229°
2026-05-06 22:25 50.74937 10.10360 23827 ft 425 kts 229°
2026-05-06 22:26 50.73075 10.06792 23830 ft 426 kts 229°
2026-05-06 22:26 50.71192 10.03181 23836 ft 426 kts 229°
2026-05-06 22:26 50.69310 9.99573 23838 ft 426 kts 229°
2026-05-06 22:26 50.67425 9.95965 23841 ft 426 kts 229°
2026-05-06 22:27 50.65536 9.92356 23845 ft 426 kts 229°
2026-05-06 22:27 50.63651 9.88760 23846 ft 426 kts 229°
2026-05-06 22:27 50.61761 9.85161 23848 ft 426 kts 229°
2026-05-06 22:27 50.59870 9.81568 23849 ft 426 kts 229°
2026-05-06 22:28 50.57978 9.77979 23851 ft 426 kts 229°
2026-05-06 22:28 50.56083 9.74388 23845 ft 427 kts 229°
2026-05-06 22:28 50.54183 9.70795 23845 ft 427 kts 229°
2026-05-06 22:28 50.52283 9.67205 23846 ft 427 kts 229°
2026-05-06 22:29 50.50381 9.63611 23843 ft 428 kts 229°
2026-05-06 22:29 50.48588 9.59876 23841 ft 429 kts 236°
2026-05-06 22:29 50.47168 9.55751 23609 ft 427 kts 245°
2026-05-06 22:29 50.46180 9.51368 22859 ft 425 kts 253°
2026-05-06 22:30 50.45373 9.46930 22129 ft 421 kts 253°
2026-05-06 22:30 50.44558 9.42534 21452 ft 417 kts 252°
2026-05-06 22:30 50.43751 9.38248 20812 ft 414 kts 252°
2026-05-06 22:30 50.42931 9.33936 20188 ft 410 kts 252°
2026-05-06 22:31 50.42113 9.29668 19588 ft 407 kts 252°
2026-05-06 22:31 50.41300 9.25433 19018 ft 403 kts 253°
2026-05-06 22:31 50.40447 9.21276 18520 ft 399 kts 251°
2026-05-06 22:31 50.39524 9.17191 17972 ft 395 kts 250°
2026-05-06 22:32 50.38567 9.13176 17395 ft 391 kts 249°
2026-05-06 22:32 50.37607 9.09206 16830 ft 388 kts 249°
2026-05-06 22:32 50.36658 9.05268 16278 ft 385 kts 249°
2026-05-06 22:32 50.35726 9.01364 15735 ft 381 kts 249°
2026-05-06 22:33 50.34810 8.97489 15201 ft 378 kts 249°
2026-05-06 22:33 50.33866 8.93673 14670 ft 375 kts 244°
2026-05-06 22:33 50.32958 8.91321 14323 ft 372 kts 232°
2026-05-06 22:33 50.31135 8.88494 13815 ft 369 kts 216°
2026-05-06 22:34 50.28881 8.86636 13246 ft 367 kts 200°
2026-05-06 22:34 50.26408 8.86140 12705 ft 366 kts 175°
2026-05-06 22:34 50.23997 8.87383 12126 ft 367 kts 150°
2026-05-06 22:34 50.22169 8.90142 11541 ft 369 kts 124°
2026-05-06 22:35 50.21279 8.93878 10965 ft 371 kts 98°
2026-05-06 22:35 50.21508 8.97877 10380 ft 371 kts 72°
2026-05-06 22:35 50.22703 9.01426 9848 ft 368 kts 56°
2026-05-06 22:35 50.24096 9.04682 9716 ft 353 kts 56°
2026-05-06 22:36 50.25307 9.07912 9573 ft 338 kts 69°
2026-05-06 22:36 50.25721 9.11406 9436 ft 321 kts 94°
2026-05-06 22:36 50.25230 9.14702 9283 ft 305 kts 119°
2026-05-06 22:36 50.23973 9.17207 9154 ft 286 kts 146°
2026-05-06 22:37 50.22263 9.18484 8983 ft 262 kts 173°
2026-05-06 22:37 50.20528 9.18362 8646 ft 243 kts 202°
2026-05-06 22:37 50.19124 9.17017 8372 ft 235 kts 221°
2026-05-06 22:37 50.17902 9.15326 8045 ft 234 kts 224°
2026-05-06 22:38 50.16800 9.13475 7704 ft 233 kts 241°
2026-05-06 22:38 50.16399 9.11078 7382 ft 232 kts 272°
2026-05-06 22:38 50.16679 9.08636 7035 ft 233 kts 282°
2026-05-06 22:38 50.16913 9.06122 6685 ft 231 kts 263°
2026-05-06 22:39 50.16487 9.03759 6358 ft 229 kts 250°
2026-05-06 22:39 50.15935 9.01430 6027 ft 229 kts 250°
2026-05-06 22:39 50.15390 8.99113 5868 ft 228 kts 250°
2026-05-06 22:39 50.14843 8.96779 5788 ft 229 kts 250°
2026-05-06 22:40 50.14296 8.94441 5713 ft 229 kts 250°
2026-05-06 22:40 50.13747 8.92098 5636 ft 230 kts 250°
2026-05-06 22:40 50.13199 8.89764 5553 ft 230 kts 250°
2026-05-06 22:40 50.12649 8.87424 5302 ft 229 kts 250°
2026-05-06 22:41 50.11558 8.82788 4667 ft 227 kts 251°
2026-05-06 22:41 50.11014 8.80479 4337 ft 227 kts 251°
2026-05-06 22:41 50.10480 8.78217 4005 ft 219 kts 252°
2026-05-06 22:42 50.09962 8.76028 3690 ft 211 kts 252°
2026-05-06 22:42 50.09465 8.73926 3399 ft 203 kts 252°
2026-05-06 22:42 50.08989 8.71915 3140 ft 196 kts 252°
2026-05-06 22:42 50.08521 8.69939 2824 ft 192 kts 252°
2026-05-06 22:43 50.08075 8.68061 2552 ft 178 kts 252°
2026-05-06 22:43 50.07652 8.66276 2300 ft 172 kts 252°
2026-05-06 22:43 50.07261 8.64635 2070 ft 153 kts 252°
2026-05-06 22:43 50.06909 8.63151 1854 ft 141 kts 253°
2026-05-06 22:44 50.06575 8.61744 1654 ft 136 kts 253°
2026-05-06 22:44 50.06252 8.60385 1458 ft 136 kts 252°
2026-05-06 22:44 50.05929 8.59014 1244 ft 135 kts 252°
2026-05-06 22:44 50.05607 8.57641 1034 ft 135 kts 251°
2026-05-06 22:45 50.05281 8.56272 832 ft 135 kts 251°
2026-05-06 22:45 50.04954 8.54892 632 ft 135 kts 252°
2026-05-06 22:45 50.04620 8.53518 431 ft 136 kts 251°
2026-05-06 22:45 50.04303 8.52199 339 ft 117 kts 250°
2026-05-06 22:46 50.04085 8.51289 328 ft 49 kts 250°
2026-05-06 22:46 50.03961 8.50994 326 ft 32 kts 226°
2026-05-06 22:46 50.03842 8.50849 327 ft 14 kts 206°
2026-05-06 22:46 50.03785 8.50889 333 ft 10 kts 107°
2026-05-06 22:47 50.03810 8.51044 332 ft 20 kts 70°
2026-05-06 22:47 50.03862 8.51264 334 ft 22 kts 69°
2026-05-06 22:47 50.03919 8.51499 334 ft 24 kts 69°
2026-05-06 22:47 50.03980 8.51747 336 ft 25 kts 69°
2026-05-06 22:48 50.04042 8.52006 338 ft 26 kts 70°
2026-05-06 22:48 50.04103 8.52268 347 ft 26 kts 70°
2026-05-06 22:48 50.04165 8.52529 350 ft 26 kts 69°
2026-05-06 22:48 50.04227 8.52788 356 ft 26 kts 69°
2026-05-06 22:49 50.04290 8.53050 360 ft 26 kts 70°
2026-05-06 22:49 50.04348 8.53295 367 ft 23 kts 69°
2026-05-06 22:49 50.04393 8.53505 375 ft 18 kts 80°
2026-05-06 22:49 50.04406 8.53690 375 ft 16 kts 83°
2026-05-06 22:50 50.04418 8.53856 375 ft 15 kts 83°
2026-05-06 22:50 50.04427 8.54006 375 ft 13 kts 84°
2026-05-06 22:50 50.04438 8.54186 375 ft 23 kts 84°
2026-05-06 22:50 50.04451 8.54458 370 ft 28 kts 95°
2026-05-06 22:51 50.04373 8.54705 361 ft 25 kts 136°
2026-05-06 22:51 50.04197 8.54836 354 ft 30 kts 161°
2026-05-06 22:51 50.04066 8.54911 358 ft 13 kts 159°
2026-05-06 22:51 50.04017 8.54995 356 ft 13 kts 91°
2026-05-06 22:52 50.04058 8.55185 356 ft 23 kts 70°
2026-05-06 22:52 50.04121 8.55449 353 ft 28 kts 70°
2026-05-06 22:52 50.04188 8.55724 357 ft 20 kts 70°
2026-05-06 22:52 50.04236 8.55925 356 ft 19 kts 69°
2026-05-06 22:53 50.04299 8.56071 359 ft 15 kts 10°
2026-05-06 22:53 50.04398 8.56029 361 ft 15 kts 354°
2026-05-06 22:53 50.04459 8.56147 361 ft 14 kts 70°
2026-05-06 22:53 50.04492 8.56286 361 ft 13 kts 70°
2026-05-06 22:54 50.04520 8.56401 359 ft 7 kts 69°
2026-05-06 22:54 50.04516 8.56457 356 ft 5 kts 140°
2026-05-06 22:54 50.04487 8.56473 358 ft 4 kts 162°
2026-05-06 22:54 50.04469 8.56483 362 ft 0 kts 159°
2026-05-06 22:55 50.04466 8.56485 361 ft 0 kts 159°